FW1460 Weather Reports


Display with metric or nautical units.
time (UTC)temp
F
wind
direction
speed
MPH
gust
MPH
rain 1hr
in
rain 24hr
in
rain mn
in
humidity
%
barometer
mb
20260902041515 60 78 0.0 0.0 0.00 0.44 0.00 92 1018.4
20260902040014 60 78 0.0 0.0 0.00 0.44 0.00 92 1018.2
20260902034512 60 78 0.0 2.0 0.00 0.44 0.44 92 1018.3
20260902033012 60 78 0.0 2.0 0.00 0.44 0.44 92 1018.2
20260902031511 61 78 0.0 2.0 0.00 0.44 0.44 92 1018.2
20260902030010 61 78 0.0 3.0 0.00 0.44 0.44 92 1018.3
20260902024518 61 78 0.0 2.0 0.00 0.44 0.44 92 1018.2
20260902023007 61 78 0.0 2.0 0.01 0.44 0.44 92 1017.9
20260902021505 61 78 0.0 2.0 0.01 0.44 0.44 92 1017.7
20260902020006 61 78 1.0 3.0 0.01 0.44 0.44 92 1017.9
20260902014504 60 79 0.0 0.0 0.01 0.44 0.44 91 1017.8
20260902013005 60 81 0.0 1.0 0.00 0.43 0.43 91 1017.6
20260902011503 60 81 0.0 4.0 0.00 0.43 0.43 91 1017.8
20260902010002 60 148 0.0 3.0 0.00 0.43 0.43 91 1017.8
20260902004502 61 148 0.0 3.0 0.00 0.43 0.43 91 1017.7
20260902003002 61 148 1.0 3.0 0.00 0.43 0.43 91 1017.6
20260902001600 61 148 0.0 1.0 0.00 0.43 0.43 92 1017.8
20260901234559 61 148 0.0 0.0 0.00 0.43 0.43 91 1017.4
20260901233058 61 148 0.0 2.0 0.00 0.43 0.43 91 1017.2
20260901231557 61 148 0.0 5.0 0.00 0.43 0.43 91 1017.3
20260901230056 61 157 1.0 5.0 0.00 0.43 0.43 91 1017.2
20260901224556 61 119 0.0 3.0 0.00 0.43 0.43 91 1017.2
20260901223056 61 126 0.0 4.0 0.00 0.43 0.43 91 1017.3
20260901221556 61 87 1.0 6.0 0.00 0.43 0.43 91 1017.2
20260901220054 61 157 0.0 2.0 0.01 0.43 0.43 91 1017.4
20260901214554 60 157 0.0 1.0 0.04 0.43 0.43 91 1017.6
20260901213112 60 157 0.0 1.0 0.07 0.43 0.43 91 1017.5
20260901211553 60 157 0.0 5.0 0.07 0.43 0.43 90 1017.3
20260901210053 59 157 1.0 5.0 0.07 0.42 0.42 90 1017.3
20260901204551 59 157 0.0 6.0 0.05 0.39 0.39 89 1017.1
20260901203051 59 215 1.0 6.0 0.02 0.36 0.36 89 1017.2
20260901201549 60 173 0.0 4.0 0.03 0.36 0.36 89 1017.0
20260901200151 60 96 1.0 3.0 0.02 0.35 0.35 89 1016.9
20260901194548 60 124 0.0 3.0 0.01 0.34 0.34 88 1017.0
20260901193048 60 124 0.0 4.0 0.00 0.33 0.33 87 1016.8
20260901191546 60 196 0.0 8.0 0.01 0.33 0.33 89 1016.7
20260901190048 61 82 2.0 6.0 0.05 0.33 0.33 89 1016.6
20260901184549 61 114 0.0 3.0 0.13 0.33 0.33 90 1016.6
20260901183043 61 142 1.0 14.0 0.16 0.33 0.33 90 1016.4
20260901181543 61 151 2.0 9.0 0.19 0.32 0.32 91 1016.5
20260901180041 61 163 1.0 6.0 0.17 0.28 0.28 90 1016.5
20260901174541 61 169 0.0 3.0 0.09 0.20 0.20 90 1017.0
20260901173039 61 153 1.0 5.0 0.06 0.17 0.17 89 1016.7
20260901171551 61 157 2.0 7.0 0.02 0.13 0.13 89 1016.8
20260901170035 62 175 4.0 13.0 0.00 0.11 0.11 88 1016.5
20260901164533 62 157 3.0 11.0 0.00 0.11 0.11 87 1016.5
20260901163030 63 160 3.0 6.0 0.00 0.11 0.11 87 1016.4
20260901161528 64 153 2.0 10.0 0.00 0.11 0.11 84 1016.6
20260901160027 64 130 3.0 12.0 0.00 0.11 0.11 82 1016.6
20260901154523 65 145 6.0 12.0 0.02 0.11 0.11 84 1016.8
20260901153023 65 159 1.0 11.0 0.04 0.11 0.11 85 1016.8
20260901151521 66 155 2.0 7.0 0.07 0.11 0.11 86 1016.7
20260901150021 66 154 1.0 6.0 0.09 0.11 0.11 87 1016.7
20260901144520 65 168 2.0 7.0 0.08 0.09 0.09 85 1016.8
20260901143019 67 138 4.0 9.0 0.06 0.07 0.07 88 1017.0
20260901141532 68 140 0.0 0.0 0.03 0.04 0.04 89 1017.4
20260901140017 68 140 0.0 0.0 0.02 0.02 0.02 87 1016.9
20260901134517 68 140 0.0 3.0 0.01 0.01 0.01 87 1016.7
20260901133018 68 150 0.0 3.0 0.01 0.01 0.01 87 1016.6
20260901131518 68 150 0.0 2.0 0.01 0.01 0.01 85 1016.7
20260901130015 68 171 0.0 3.0 0.00 0.00 0.00 85 1016.6
20260901124515 68 171 0.0 0.0 0.00 0.00 0.00 85 1016.6
20260901123014 68 171 0.0 0.0 0.00 0.00 0.00 84 1016.6
20260901121512 68 171 0.0 3.0 0.00 0.00 0.00 84 1016.6
20260901120012 68 171 0.0 3.0 0.00 0.00 0.00 84 1016.5
20260901114517 68 171 0.0 2.0 0.00 0.00 0.00 85 1016.5
20260901113011 68 171 0.0 0.0 0.00 0.00 0.00 86 1016.4
20260901111509 67 171 0.0 0.0 0.00 0.00 0.00 86 1016.4
20260901110008 67 171 0.0 0.0 0.00 0.00 0.00 87 1016.4
20260901104507 66 171 0.0 0.0 0.00 0.00 0.00 88 1016.3
20260901103007 66 171 0.0 0.0 0.00 0.00 0.00 87 1016.1
20260901101506 66 171 0.0 0.0 0.00 0.00 0.00 87 1016.0
20260901100005 66 171 0.0 0.0 0.00 0.00 0.00 87 1016.1
20260901094506 66 171 0.0 0.0 0.00 0.00 0.00 87 1015.8
20260901093003 66 171 0.0 0.0 0.00 0.00 0.00 88 1016.0
20260901091503 65 171 0.0 0.0 0.00 0.00 0.00 88 1016.0
20260901090006 65 171 0.0 0.0 0.00 0.00 0.00 87 1016.0
20260901084600 66 171 0.0 0.0 0.00 0.00 0.00 86 1016.2
20260901083057 66 171 0.0 0.0 0.00 0.00 0.00 86 1016.6
20260901081555 66 171 0.0 0.0 0.00 0.00 0.00 85 1017.0
20260901080055 66 171 0.0 1.0 0.00 0.00 0.00 85 1016.9
20260901074602 66 171 0.0 1.0 0.00 0.00 0.00 85 1016.8
20260901073053 67 171 0.0 1.0 0.00 0.00 0.00 84 1016.8
20260901071552 67 171 0.0 0.0 0.00 0.00 0.00 84 1016.7
20260901070051 66 171 0.0 0.0 0.00 0.00 0.00 84 1016.7
20260901064549 67 171 0.0 2.0 0.00 0.00 0.00 83 1016.9
20260901063048 67 171 0.0 0.0 0.00 0.00 0.00 83 1017.2
20260901061549 67 171 0.0 0.0 0.00 0.00 0.00 83 1017.2
20260901060049 67 171 0.0 1.0 0.00 0.00 0.00 83 1017.0
20260901054550 67 171 0.0 0.0 0.00 0.01 0.00 82 1017.1
20260901053052 67 171 0.0 2.0 0.00 0.01 0.00 82 1017.1
20260901051545 67 171 0.0 0.0 0.00 0.01 0.00 82 1017.1
20260901050044 67 171 0.0 0.0 0.00 0.01 0.00 82 1017.2
20260901044543 67 171 0.0 2.0 0.00 0.01 0.00 82 1017.3
20260901043041 67 171 0.0 3.0 0.00 0.01 0.00 83 1017.5